Location: Lafig�re
(44.4503°N, 4.0357°E)
Time: 15:19:15
(UTC+00:00)

Vanguard 2 Rocket - Pass Details

Date: 28 January 2021
Orbit: 554 x 3325 km, 32.9° (Epoch: 06 March)

Event Time Altitude Azimuth Distance (km) Brightness Sun altitude
Rises 16:02:50 0° 259° (WSW) 6,577 12.8 6.2°
Reaches altitude 10° 16:08:02 10° 254° (WSW) 5,161 12.6 5.4°
Maximum altitude 16:20:31 43° 190° (S) 2,207 9.4 3.5°
Drops below altitude 10° 16:27:51 10° 121° (ESE) 3,075 9.3 2.3°
Sets 16:30:10 0° 114° (ESE) 3,765 9.7 2.0°
